Terug naar catalogus

ATLAS 5 CENTAUR DEB

LostHEO
NORAD 55852·DEBRIS·🇺🇸 United States

Gelanceerd Oct 17, 2018 vanaf Cape Canaveral Space Force Station

Loading…

Volgende Passages (komende 24 uur)

TLE

VerouderdSource: Space-Track

Epoch: May 6, 2024, 03:30 UTC

1 55852U 18079HE  24127.14625535 -.00000049  00000-0  00000+0 0  9990
2 55852  12.3328  75.2299 4526346 262.6109  45.5959  2.06031400 10347

Volg ATLAS 5 CENTAUR DEB in realtime met AllMySat

Download on the App Store